Time,TemperatureF,DewpointF,PressureIn,WindDirection,WindDirectionDegrees,WindSpeedMPH,WindSpeedGustMPH,Humidity,HourlyPrecipIn,Conditions,Clouds,dailyrainin,SoftwareType,DateUTC
2013-11-16 00:11:00,32.0,26.0,30.22,NE,34,0.0,0.0,79,0.00,,,0.00,weatherlink.com 1.10,2013-11-16 05:11:00,
2013-11-16 00:26:00,32.2,26.0,30.23,SSW,206,0.0,4.0,78,0.00,,,0.00,weatherlink.com 1.10,2013-11-16 05:26:00,
2013-11-16 00:41:00,31.9,26.0,30.22,SSW,206,0.0,2.0,79,0.00,,,0.00,weatherlink.com 1.10,2013-11-16 05:41:00,
2013-11-16 00:56:00,32.2,26.0,30.22,SSW,206,0.0,0.0,79,0.00,,,0.00,weatherlink.com 1.10,2013-11-16 05:56:00,
2013-11-16 01:11:00,32.3,26.0,30.21,SSW,206,0.0,0.0,79,0.00,,,0.00,weatherlink.com 1.10,2013-11-16 06:11:00,
2013-11-16 01:26:00,32.6,27.0,30.23,SSW,192,0.0,2.0,79,0.00,,,0.00,weatherlink.com 1.10,2013-11-16 06:26:00,
2013-11-16 01:42:00,32.9,27.0,30.23,SSW,192,0.0,1.0,80,0.00,,,0.00,weatherlink.com 1.10,2013-11-16 06:42:00,
2013-11-16 01:57:00,33.6,28.0,30.24,SSW,192,0.0,2.0,80,0.00,,,0.00,weatherlink.com 1.10,2013-11-16 06:57:00,
2013-11-16 02:12:00,34.0,28.0,30.24,SSW,192,0.0,0.0,79,0.00,,,0.00,weatherlink.com 1.10,2013-11-16 07:12:00,
2013-11-16 02:27:00,34.1,28.0,30.23,SSW,192,0.0,2.0,79,0.00,,,0.00,weatherlink.com 1.10,2013-11-16 07:27:00,
2013-11-16 02:42:00,33.7,28.0,30.25,SSW,192,0.0,3.0,79,0.00,,,0.00,weatherlink.com 1.10,2013-11-16 07:42:00,
2013-11-16 02:57:00,33.7,28.0,30.25,NNE,24,3.0,5.0,80,0.00,,,0.00,weatherlink.com 1.10,2013-11-16 07:57:00,
2013-11-16 03:12:00,34.2,28.0,30.25,NNE,26,0.0,0.0,77,0.00,,,0.00,weatherlink.com 1.10,2013-11-16 08:12:00,
2013-11-16 03:27:00,34.9,29.0,30.25,NNE,26,1.0,2.0,78,0.00,,,0.00,weatherlink.com 1.10,2013-11-16 08:27:00,
2013-11-16 03:42:00,37.3,29.0,30.25,NNE,26,0.0,3.0,72,0.00,,,0.00,weatherlink.com 1.10,2013-11-16 08:42:00,
2013-11-16 03:57:00,39.2,30.0,30.26,SW,219,0.0,2.0,70,0.00,,,0.00,weatherlink.com 1.10,2013-11-16 08:57:00,
2013-11-16 04:12:00,40.9,33.0,30.27,SW,232,0.0,4.0,72,0.00,,,0.00,weatherlink.com 1.10,2013-11-16 09:12:00,
2013-11-16 04:27:00,40.6,32.0,30.27,NNW,344,0.0,4.0,71,0.00,,,0.00,weatherlink.com 1.10,2013-11-16 09:27:00,
2013-11-16 04:42:00,40.0,32.0,30.27,SE,126,0.0,3.0,73,0.00,,,0.00,weatherlink.com 1.10,2013-11-16 09:42:00,
2013-11-16 04:57:00,43.2,36.0,30.27,SW,218,2.0,5.0,76,0.00,,,0.00,weatherlink.com 1.10,2013-11-16 09:57:00,
2013-11-16 05:12:00,45.1,37.0,30.27,NW,324,0.0,7.0,74,0.00,,,0.00,weatherlink.com 1.10,2013-11-16 10:12:00,
2013-11-16 05:27:00,45.4,38.0,30.27,NW,324,0.0,1.0,74,0.00,,,0.00,weatherlink.com 1.10,2013-11-16 10:27:00,
2013-11-16 05:42:00,45.2,37.0,30.26,NNE,24,0.0,1.0,74,0.00,,,0.00,weatherlink.com 1.10,2013-11-16 10:42:00,
2013-11-16 05:57:00,44.8,37.0,30.26,NNE,24,0.0,0.0,75,0.00,,,0.00,weatherlink.com 1.10,2013-11-16 10:57:00,
2013-11-16 06:12:00,44.5,37.0,30.27,NNE,24,0.0,0.0,75,0.00,,,0.00,weatherlink.com 1.10,2013-11-16 11:12:00,
2013-11-16 06:27:00,43.8,37.0,30.27,NNE,24,0.0,0.0,76,0.00,,,0.00,weatherlink.com 1.10,2013-11-16 11:27:00,
2013-11-16 06:42:00,43.6,37.0,30.28,NNE,24,0.0,1.0,78,0.00,,,0.00,weatherlink.com 1.10,2013-11-16 11:42:00,
2013-11-16 06:57:00,44.2,37.0,30.29,NNE,24,0.0,3.0,76,0.00,,,0.00,weatherlink.com 1.10,2013-11-16 11:57:00,
2013-11-16 07:12:00,43.7,37.0,30.29,NNE,24,0.0,1.0,76,0.00,,,0.00,weatherlink.com 1.10,2013-11-16 12:12:00,
2013-11-16 07:27:00,42.7,36.0,30.30,NNE,24,0.0,0.0,78,0.00,,,0.00,weatherlink.com 1.10,2013-11-16 12:27:00,
2013-11-16 07:42:00,41.9,36.0,30.30,NNE,24,0.0,0.0,80,0.00,,,0.00,weatherlink.com 1.10,2013-11-16 12:42:00,
2013-11-16 07:57:00,41.5,35.0,30.31,South,173,0.0,3.0,78,0.00,,,0.00,weatherlink.com 1.10,2013-11-16 12:57:00,
2013-11-16 08:12:00,41.8,35.0,30.32,South,173,0.0,1.0,77,0.00,,,0.00,weatherlink.com 1.10,2013-11-16 13:12:00,
2013-11-16 08:27:00,42.7,36.0,30.31,South,173,0.0,1.0,77,0.00,,,0.00,weatherlink.com 1.10,2013-11-16 13:27:00,
2013-11-16 08:42:00,44.0,37.0,30.31,South,173,1.0,2.0,75,0.00,,,0.00,weatherlink.com 1.10,2013-11-16 13:42:00,
2013-11-16 08:57:00,45.7,37.0,30.32,South,173,0.0,3.0,73,0.00,,,0.00,weatherlink.com 1.10,2013-11-16 13:57:00,
2013-11-16 09:12:00,47.3,38.0,30.32,South,173,0.0,2.0,71,0.00,,,0.00,weatherlink.com 1.10,2013-11-16 14:12:00,
2013-11-16 09:28:00,48.2,38.0,30.33,South,173,1.0,4.0,68,0.00,,,0.00,weatherlink.com 1.10,2013-11-16 14:28:00,
2013-11-16 09:43:00,49.8,39.0,30.33,South,173,1.0,2.0,66,0.00,,,0.00,weatherlink.com 1.10,2013-11-16 14:43:00,
2013-11-16 09:58:00,51.9,39.0,30.33,SSE,153,0.0,2.0,61,0.00,,,0.00,weatherlink.com 1.10,2013-11-16 14:58:00,
2013-11-16 10:13:00,53.4,38.0,30.33,ESE,118,0.0,3.0,57,0.00,,,0.00,weatherlink.com 1.10,2013-11-16 15:13:00,
2013-11-16 10:28:00,53.8,39.0,30.33,SSE,155,2.0,5.0,58,0.00,,,0.00,weatherlink.com 1.10,2013-11-16 15:28:00,
2013-11-16 10:43:00,54.4,38.0,30.33,ESE,111,1.0,3.0,54,0.00,,,0.00,weatherlink.com 1.10,2013-11-16 15:43:00,
2013-11-16 10:58:00,55.1,38.0,30.32,SE,141,0.0,3.0,52,0.00,,,0.00,weatherlink.com 1.10,2013-11-16 15:58:00,
2013-11-16 11:13:00,56.8,38.0,30.31,SSE,147,1.0,3.0,50,0.00,,,0.00,weatherlink.com 1.10,2013-11-16 16:13:00,
2013-11-16 11:28:00,57.8,38.0,30.30,South,172,1.0,4.0,48,0.00,,,0.00,weatherlink.com 1.10,2013-11-16 16:28:00,
2013-11-16 11:43:00,58.0,39.0,30.30,SSW,210,2.0,6.0,49,0.00,,,0.00,weatherlink.com 1.10,2013-11-16 16:43:00,
2013-11-16 11:58:00,58.2,40.0,30.29,South,184,1.0,5.0,51,0.00,,,0.00,weatherlink.com 1.10,2013-11-16 16:58:00,
2013-11-16 12:13:00,58.8,40.0,30.29,ESE,113,0.0,8.0,50,0.00,,,0.00,weatherlink.com 1.10,2013-11-16 17:13:00,
2013-11-16 12:28:00,58.5,40.0,30.28,ESE,120,2.0,7.0,50,0.00,,,0.00,weatherlink.com 1.10,2013-11-16 17:28:00,
2013-11-16 12:43:00,59.2,39.0,30.28,South,174,0.0,5.0,48,0.00,,,0.00,weatherlink.com 1.10,2013-11-16 17:43:00,
2013-11-16 12:58:00,59.4,38.0,30.28,SSE,159,3.0,7.0,46,0.00,,,0.00,weatherlink.com 1.10,2013-11-16 17:58:00,
2013-11-16 13:13:00,59.3,39.0,30.27,SSE,148,0.0,4.0,48,0.00,,,0.00,weatherlink.com 1.10,2013-11-16 18:13:00,
2013-11-16 14:27:00,59.3,37.0,30.26,South,189,3.0,5.0,44,0.00,,,0.00,weatherlink.com 1.10,2013-11-16 19:27:00,
2013-11-16 14:58:00,59.4,37.0,30.27,SSE,154,2.0,7.0,43,0.00,,,0.00,weatherlink.com 1.10,2013-11-16 19:58:00,
2013-11-16 15:13:00,58.1,37.0,30.27,ESE,123,0.0,3.0,45,0.00,,,0.00,weatherlink.com 1.10,2013-11-16 20:13:00,
2013-11-16 15:28:00,57.8,36.0,30.27,SSE,149,2.0,7.0,45,0.00,,,0.00,weatherlink.com 1.10,2013-11-16 20:28:00,
2013-11-16 15:44:00,57.8,37.0,30.27,ESE,117,1.0,5.0,46,0.00,,,0.00,weatherlink.com 1.10,2013-11-16 20:44:00,
2013-11-16 15:58:00,56.9,37.0,30.27,ESE,123,0.0,3.0,47,0.00,,,0.00,weatherlink.com 1.10,2013-11-16 20:58:00,
2013-11-16 16:13:00,54.7,36.0,30.27,ESE,113,0.0,3.0,50,0.00,,,0.00,weatherlink.com 1.10,2013-11-16 21:13:00,
2013-11-16 16:28:00,52.7,36.0,30.27,ESE,122,0.0,0.0,53,0.00,,,0.00,weatherlink.com 1.10,2013-11-16 21:28:00,
2013-11-16 16:43:00,51.2,35.0,30.27,East,97,0.0,1.0,54,0.00,,,0.00,weatherlink.com 1.10,2013-11-16 21:43:00,
2013-11-16 16:58:00,50.0,34.0,30.27,East,97,0.0,1.0,55,0.00,,,0.00,weatherlink.com 1.10,2013-11-16 21:58:00,
2013-11-16 17:13:00,49.2,34.0,30.27,East,99,0.0,0.0,57,0.00,,,0.00,weatherlink.com 1.10,2013-11-16 22:13:00,
2013-11-16 17:28:00,48.7,34.0,30.27,East,99,0.0,1.0,57,0.00,,,0.00,weatherlink.com 1.10,2013-11-16 22:28:00,
2013-11-16 17:43:00,48.2,34.0,30.27,East,99,0.0,0.0,58,0.00,,,0.00,weatherlink.com 1.10,2013-11-16 22:43:00,
2013-11-16 17:58:00,46.7,33.0,30.27,East,99,0.0,0.0,60,0.00,,,0.00,weatherlink.com 1.10,2013-11-16 22:58:00,
2013-11-16 18:13:00,45.3,33.0,30.28,East,99,0.0,0.0,63,0.00,,,0.00,weatherlink.com 1.10,2013-11-16 23:13:00,
2013-11-16 18:28:00,43.4,33.0,30.28,East,99,0.0,1.0,67,0.00,,,0.00,weatherlink.com 1.10,2013-11-16 23:28:00,
2013-11-16 18:43:00,42.0,33.0,30.29,East,97,0.0,0.0,70,0.00,,,0.00,weatherlink.com 1.10,2013-11-16 23:43:00,
2013-11-16 18:58:00,41.6,33.0,30.29,East,97,0.0,0.0,72,0.00,,,0.00,weatherlink.com 1.10,2013-11-16 23:58:00,
2013-11-16 19:13:00,40.4,33.0,30.29,East,97,0.0,2.0,74,0.00,,,0.00,weatherlink.com 1.10,2013-11-17 00:13:00,
2013-11-16 19:28:00,40.1,33.0,30.29,East,97,0.0,1.0,75,0.00,,,0.00,weatherlink.com 1.10,2013-11-17 00:28:00,
2013-11-16 19:43:00,39.0,32.0,30.29,East,97,0.0,2.0,77,0.00,,,0.00,weatherlink.com 1.10,2013-11-17 00:43:00,
2013-11-16 19:58:00,38.0,32.0,30.29,East,97,0.0,2.0,78,0.00,,,0.00,weatherlink.com 1.10,2013-11-17 00:58:00,
2013-11-16 20:13:00,37.5,32.0,30.28,East,97,0.0,0.0,79,0.00,,,0.00,weatherlink.com 1.10,2013-11-17 01:13:00,
2013-11-16 20:28:00,37.0,32.0,30.27,East,97,1.0,2.0,81,0.00,,,0.00,weatherlink.com 1.10,2013-11-17 01:28:00,
2013-11-16 20:43:00,36.1,31.0,30.28,East,97,0.0,0.0,81,0.00,,,0.00,weatherlink.com 1.10,2013-11-17 01:43:00,
2013-11-16 20:58:00,35.2,31.0,30.28,East,97,0.0,0.0,83,0.00,,,0.00,weatherlink.com 1.10,2013-11-17 01:58:00,
2013-11-16 21:13:00,34.8,31.0,30.29,East,97,0.0,1.0,85,0.00,,,0.00,weatherlink.com 1.10,2013-11-17 02:13:00,
2013-11-16 21:28:00,34.7,31.0,30.28,East,97,1.0,1.0,86,0.00,,,0.00,weatherlink.com 1.10,2013-11-17 02:28:00,
2013-11-16 21:43:00,34.8,31.0,30.28,East,97,0.0,1.0,85,0.00,,,0.00,weatherlink.com 1.10,2013-11-17 02:43:00,
2013-11-16 21:58:00,34.4,31.0,30.28,East,92,0.0,1.0,86,0.00,,,0.00,weatherlink.com 1.10,2013-11-17 02:58:00,
2013-11-16 22:13:00,33.8,30.0,30.28,SSW,202,0.0,2.0,86,0.00,,,0.00,weatherlink.com 1.10,2013-11-17 03:13:00,
2013-11-16 22:28:00,33.4,30.0,30.28,SSW,202,3.0,3.0,87,0.00,,,0.00,weatherlink.com 1.10,2013-11-17 03:28:00,
2013-11-16 22:43:00,33.8,31.0,30.27,SSW,202,1.0,1.0,88,0.00,,,0.00,weatherlink.com 1.10,2013-11-17 03:43:00,
2013-11-16 22:58:00,32.9,30.0,30.27,SSW,202,0.0,3.0,87,0.00,,,0.00,weatherlink.com 1.10,2013-11-17 03:58:00,
2013-11-16 23:13:00,32.8,30.0,30.27,SSW,202,0.0,2.0,89,0.00,,,0.00,weatherlink.com 1.10,2013-11-17 04:13:00,
2013-11-16 23:28:00,32.8,30.0,30.27,SSW,202,0.0,0.0,88,0.00,,,0.00,weatherlink.com 1.10,2013-11-17 04:28:00,
2013-11-16 23:43:00,33.0,30.0,30.27,SSW,202,0.0,0.0,89,0.00,,,0.00,weatherlink.com 1.10,2013-11-17 04:43:00,
2013-11-16 23:58:00,33.5,31.0,30.27,SSW,202,0.0,3.0,90,0.00,,,0.00,weatherlink.com 1.10,2013-11-17 04:58:00,